Flag for China Weather past 2 weeks in Kashgar, Xinjiang, China

Now
72 °F

Clear.


Feels Like: 77 °F
Forecast: 67 / 90 °F
Wind: 6 mph from Northwest

Location: Kashi Airport

Current Time: Jun 30, 2015 at 7:32:24 AM

Latest Report: Jun 30, 2015 at 6:00 AM


Visibility: 10 mi

Pressure: 29.95 "Hg

Humidity: 44%

Dew point: 48 °F

Location of KashgarLocation

Historic Weather in Kashgar — Graph

°F

Kashgar temperature yesterday

Maximum temperature yesterday: 91 °F (at 5:00 PM)
Minimum temperature yesterday: 70 °F (at 8:00 AM)
Average temperature yesterday: 81 °F

Past Weeks' High & Low Weather Summary

 TemperatureHumidityPressure
High91 °F (Jun 29, 5:00 PM)94% (Jun 25, 9:00 AM)30.04 "Hg (Jun 25, 9:00 AM)
Low57 °F (Jun 25, 1:00 PM)5% (Jun 15, 7:00 PM)29.62 "Hg (Jun 26, 6:00 PM)
Average75 °F35%29.82 "Hg
* Reported Jun 15 6:00 AM — Jun 30 6:00 AM, Kashgar, Weather by CustomWeather, © 2015

Note: Actual official high and low records may vary slightly from our data, if they occured in-between our weather recording intervals... More about our weather records

Advertising

Kashgar weather history for previous 24 hours

 ConditionsComfort  
Time TempWeatherWind HumidityBarometerVisibility
6:00 AM
Tue, Jun 30
72 °FClear.6 mph44%29.95 "Hg10 mi
5:00 AM73 °FClear.8 mph36%29.95 "Hg10 mi
4:00 AM73 °FClear.10 mph36%29.95 "Hg4 mi
3:00 AM75 °FClear.15 mph34%29.98 "Hg10 mi
2:00 AM77 °FClear.20 mph32%29.98 "Hg10 mi
1:00 AM81 °FClear.6 mph28%29.98 "Hg10 mi
12:00 AM81 °FThunderstorms. Passing clouds.13 mph28%29.95 "HgN/A
11:00 PM
Mon, Jun 29
84 °FThunderstorms. Passing clouds.1 mph23%29.92 "HgN/A
10:00 PM86 °FPassing clouds.3 mph24%29.92 "HgN/A
9:00 PM86 °FScattered clouds.6 mph24%29.89 "HgN/A
8:00 PM88 °FScattered clouds.10 mph22%29.86 "HgN/A
7:00 PM91 °FScattered clouds.10 mph17%29.83 "HgN/A
6:00 PM91 °FScattered clouds.8 mph17%29.83 "HgN/A
5:00 PM91 °FScattered clouds.8 mph16%29.86 "HgN/A
4:00 PM90 °FPassing clouds.8 mph18%29.86 "HgN/A
3:00 PM90 °FPassing clouds.10 mph17%29.89 "HgN/A
2:00 PM88 °FPassing clouds.8 mph13%29.89 "HgN/A
1:00 PM86 °FSunny.3 mph15%29.89 "Hg10 mi
12:00 PM84 °FSunny.6 mph18%29.89 "Hg10 mi
11:00 AM82 °FSunny.8 mph21%29.89 "Hg10 mi
10:00 AM75 °FSunny.8 mph29%29.89 "Hg10 mi
9:00 AM72 °FSunny.13 mph31%29.86 "Hg10 mi
8:00 AM70 °FSunny.8 mph33%29.86 "Hg10 mi
7:00 AM72 °FPassing clouds.8 mph31%29.86 "HgN/A
Weather by CustomWeather, © 2015

See weather overviewHow to use our weather pages